FW4628 Weather Reports


Display with metric or nautical units.
time (UTC)temp
F
wind
direction
speed
MPH
gust
MPH
rain 1hr
in
rain 24hr
in
rain mn
in
humidity
%
barometer
mb
20260903173536 58 144 2.0 6.0 0.00 0.31 0.06 89 1000.4
20260903173509 59 145 3.0 7.0 0.00 0.31 0.06 89 1000.5
20260903173111 58 144 1.0 7.0 0.00 0.31 0.06 90 1000.4
20260903173005 58 144 2.0 7.0 0.00 0.31 0.06 90 1000.5
20260903172538 57 145 1.0 9.0 0.00 0.31 0.06 90 1000.4
20260903172502 58 144 2.0 9.0 0.00 0.31 0.06 91 1000.4
20260903172014 57 144 3.0 9.0 0.00 0.31 0.06 90 1000.4
20260903171955 58 144 3.0 9.0 0.00 0.31 0.06 91 1000.5
20260903171538 57 138 3.0 8.0 0.00 0.31 0.06 92 1000.5
20260903171447 57 139 3.0 8.0 0.00 0.31 0.06 92 1000.5
20260903171109 57 134 1.0 5.0 0.00 0.31 0.06 92 1000.5
20260903171029 57 134 1.0 4.0 0.00 0.31 0.06 93 1000.6
20260903170520 56 134 1.0 5.0 0.00 0.31 0.06 92 1000.6
20260903170503 57 134 2.0 5.0 0.00 0.31 0.06 92 1000.7
20260903170046 56 133 2.0 6.0 0.00 0.31 0.06 92 1000.7
20260903165955 57 134 2.0 6.0 0.00 0.31 0.06 92 1000.7
20260903165619 56 134 2.0 6.0 0.00 0.31 0.06 93 1000.7
20260903165515 57 134 2.0 6.0 0.00 0.31 0.06 93 1000.7
20260903165047 56 134 1.0 5.0 0.00 0.31 0.06 93 1000.8
20260903165007 57 134 1.0 5.0 0.00 0.31 0.06 94 1000.9
20260903164520 56 134 0.0 4.0 0.00 0.31 0.06 94 1000.8
20260903164506 57 134 0.0 4.0 0.00 0.31 0.06 94 1000.9
20260903164046 56 134 0.0 4.0 0.01 0.31 0.06 94 1000.9
20260903163958 57 134 0.0 4.0 0.01 0.31 0.06 94 1001.0
20260903163515 56 134 0.0 3.0 0.01 0.31 0.06 94 1000.9
20260903163448 57 134 1.0 3.0 0.01 0.31 0.06 94 1001.0
20260903163050 56 134 0.0 2.0 0.01 0.31 0.06 94 1001.0
20260903163008 56 134 0.0 4.0 0.01 0.31 0.06 94 1001.0
20260903162521 56 134 0.0 5.0 0.01 0.31 0.06 94 1000.9
20260903162504 56 134 1.0 5.0 0.01 0.31 0.06 94 1001.0
20260903162048 55 134 2.0 5.0 0.01 0.31 0.06 94 1000.9
20260903161952 56 134 3.0 5.0 0.01 0.31 0.06 94 1000.9
20260903161518 55 134 0.0 4.0 0.01 0.31 0.06 93 1000.9
20260903161447 55 134 1.0 4.0 0.01 0.31 0.06 93 1000.9
20260903161055 55 134 1.0 4.0 0.02 0.31 0.06 93 1000.9
20260903161009 55 134 1.0 4.0 0.02 0.31 0.06 93 1000.9
20260903160521 55 133 0.0 4.0 0.02 0.31 0.06 93 1000.8
20260903160458 55 133 0.0 4.0 0.02 0.31 0.06 93 1000.9
20260903160024 55 134 1.0 4.0 0.02 0.31 0.06 93 1000.9
20260903155516 55 134 0.0 0.0 0.02 0.31 0.06 92 1001.0
20260903155457 55 134 0.0 0.0 0.02 0.31 0.06 92 1001.0
20260903155043 55 134 0.0 0.0 0.02 0.31 0.06 93 1000.9
20260903155017 55 134 0.0 0.0 0.02 0.31 0.06 92 1001.0
20260903154520 55 134 0.0 0.0 0.02 0.31 0.06 92 1001.0
20260903045530 56 131 1.0 5.0 0.00 0.24 0.24 92 1000.2
20260903045504 57 130 1.0 5.0 0.00 0.24 0.24 92 1000.2
20260903045008 56 130 1.0 6.0 0.00 0.24 0.24 92 1000.2
20260903044953 57 126 1.0 6.0 0.00 0.24 0.24 92 1000.2
20260903044540 56 126 1.0 6.0 0.00 0.24 0.24 92 1000.2
20260903044451 57 125 1.0 6.0 0.00 0.24 0.24 92 1000.2
20260903044014 56 124 2.0 6.0 0.00 0.24 0.24 92 1000.1
20260903043946 57 124 2.0 6.0 0.00 0.24 0.24 92 1000.1
20260903043547 56 123 1.0 6.0 0.00 0.24 0.24 92 1000.1
20260903043507 57 124 1.0 6.0 0.00 0.24 0.24 92 1000.1
20260903043014 56 124 1.0 8.0 0.00 0.24 0.24 92 1000.0
20260903042949 57 123 2.0 8.0 0.00 0.24 0.24 92 1000.0
20260903042544 56 123 2.0 8.0 0.00 0.24 0.24 92 999.9
20260903042509 57 124 2.0 8.0 0.00 0.24 0.24 92 1000.0
20260903042016 56 131 1.0 7.0 0.00 0.24 0.24 92 999.9
20260903042003 57 131 1.0 7.0 0.00 0.24 0.24 92 1000.0
20260903041542 57 131 3.0 7.0 0.00 0.24 0.24 92 999.8
20260903041455 57 131 4.0 7.0 0.00 0.24 0.24 92 999.9
20260903041118 57 132 2.0 7.0 0.00 0.24 0.24 92 999.9
20260903041015 57 133 2.0 7.0 0.00 0.24 0.24 92 999.9
20260903040550 57 132 2.0 9.0 0.00 0.24 0.24 92 999.8
20260903040504 57 132 2.0 9.0 0.00 0.24 0.24 92 999.9
20260903040022 57 133 4.0 9.0 0.00 0.24 0.24 92 999.7
20260903035953 57 133 5.0 9.0 0.00 0.24 0.24 92 999.8
20260903035544 57 136 3.0 8.0 0.00 0.24 0.24 92 999.7
20260903035448 57 135 4.0 8.0 0.00 0.24 0.24 92 999.7
20260903035116 57 134 4.0 8.0 0.00 0.24 0.24 92 999.7
20260903035028 57 136 4.0 7.0 0.00 0.24 0.24 92 999.6
20260903034524 57 138 3.0 7.0 0.00 0.24 0.24 92 999.5
20260903034451 57 138 3.0 7.0 0.00 0.24 0.24 92 999.6
20260903034056 57 138 2.0 7.0 0.00 0.24 0.24 92 999.4
20260903034016 58 138 2.0 7.0 0.00 0.24 0.24 92 999.4
20260903033530 57 138 2.0 7.0 0.00 0.24 0.24 92 999.3
20260903033510 58 138 2.0 7.0 0.00 0.24 0.24 92 999.4
20260903033040 57 138 1.0 7.0 0.00 0.24 0.24 92 999.3
20260903033009 58 138 3.0 7.0 0.00 0.24 0.24 92 999.3
20260903032554 57 135 2.0 9.0 0.00 0.24 0.24 92 999.3
20260903032512 58 136 2.0 9.0 0.00 0.24 0.24 92 999.3
20260903032109 57 136 3.0 9.0 0.00 0.24 0.24 92 999.1
20260903032018 58 136 4.0 9.0 0.00 0.24 0.24 92 999.1
20260903031619 57 126 3.0 12.0 0.00 0.24 0.24 92 999.1
20260903031520 58 126 4.0 12.0 0.00 0.24 0.24 92 999.2
20260903031030 57 126 4.0 12.0 0.00 0.24 0.24 92 999.0
20260903030951 58 140 4.0 12.0 0.00 0.24 0.24 92 999.0
20260903030606 58 130 3.0 9.0 0.00 0.24 0.24 92 999.1
20260903030513 58 130 4.0 9.0 0.00 0.24 0.24 92 999.1
20260903030038 58 138 1.0 9.0 0.00 0.24 0.24 92 999.1
20260903030002 58 138 1.0 8.0 0.00 0.24 0.24 92 999.1
20260903025508 58 140 2.0 8.0 0.00 0.24 0.24 92 999.1
20260903025456 58 141 3.0 8.0 0.00 0.24 0.24 92 999.2
20260903025044 58 139 1.0 8.0 0.00 0.24 0.24 92 999.0
20260903025016 58 139 2.0 8.0 0.00 0.24 0.24 92 999.0
20260903024612 58 139 3.0 10.0 0.00 0.24 0.24 92 999.0
20260903024451 58 139 4.0 10.0 0.00 0.24 0.24 92 999.0
20260903024125 58 139 4.0 9.0 0.00 0.24 0.24 92 998.8
20260903024023 58 134 4.0 8.0 0.00 0.24 0.24 92 998.8
20260903023534 58 123 1.0 8.0 0.00 0.24 0.24 92 998.7
20260903023451 59 122 2.0 8.0 0.00 0.24 0.24 92 998.7
20260903023010 58 227 2.0 8.0 0.00 0.24 0.24 92 998.7
20260903022950 59 134 3.0 8.0 0.00 0.24 0.24 92 998.7
20260903022546 58 130 1.0 7.0 0.00 0.24 0.24 92 998.6
20260903022503 59 133 1.0 8.0 0.00 0.24 0.24 92 998.6
20260903022051 58 132 3.0 11.0 0.00 0.24 0.24 92 998.7
20260903021956 59 131 3.0 11.0 0.00 0.24 0.24 92 998.8
20260903021626 58 132 3.0 11.0 0.00 0.24 0.24 92 998.7
20260903021519 59 138 3.0 11.0 0.00 0.24 0.24 92 998.8
20260903021048 58 141 3.0 7.0 0.00 0.24 0.24 92 998.6
20260903021004 59 141 3.0 7.0 0.00 0.24 0.24 92 998.6
20260903020516 59 162 1.0 9.0 0.00 0.24 0.24 95 998.6
20260903020451 59 130 2.0 9.0 0.00 0.24 0.24 92 998.6
20260903020051 59 131 3.0 9.0 0.00 0.24 0.24 95 998.5
20260903015946 59 130 4.0 9.0 0.00 0.24 0.24 95 998.6
20260903015618 59 138 3.0 8.0 0.00 0.24 0.24 93 998.5
20260903015528 59 136 3.0 8.0 0.00 0.24 0.24 93 998.5
20260903015033 59 134 1.0 7.0 0.00 0.24 0.24 93 998.5
20260903015003 59 134 2.0 7.0 0.00 0.24 0.24 93 998.5
20260903014601 59 134 1.0 8.0 0.00 0.24 0.24 93 998.3
20260903014459 59 134 2.0 8.0 0.00 0.24 0.24 93 998.2
20260903014045 59 135 0.0 8.0 0.00 0.24 0.24 93 998.2
20260903013955 59 134 0.0 8.0 0.00 0.24 0.24 93 998.2
20260903013518 58 134 2.0 8.0 0.00 0.24 0.24 92 998.2
20260903013450 59 134 2.0 8.0 0.00 0.24 0.24 92 998.3
20260903013052 58 141 0.0 5.0 0.00 0.24 0.24 92 998.3
20260903013013 59 142 1.0 5.0 0.00 0.24 0.24 92 998.4
20260903012557 58 141 0.0 4.0 0.00 0.24 0.24 92 998.3
20260903012453 59 141 1.0 4.0 0.00 0.24 0.24 92 998.4
20260903012108 58 142 0.0 4.0 0.00 0.24 0.24 92 998.3
20260903012013 59 142 1.0 4.0 0.01 0.24 0.24 92 998.2
20260903011620 58 142 0.0 2.0 0.01 0.24 0.24 92 998.2
20260903011516 59 142 0.0 2.0 0.01 0.24 0.24 92 998.2
20260903011050 58 142 0.0 2.0 0.01 0.24 0.24 92 998.2
20260903011003 59 142 0.0 2.0 0.01 0.24 0.24 92 998.2
20260903010629 58 142 0.0 5.0 0.01 0.24 0.24 92 998.2
20260903010548 59 142 0.0 5.0 0.01 0.24 0.24 92 998.3
20260903010506 59 142 0.0 5.0 0.01 0.24 0.24 92 998.3
20260903010022 58 142 2.0 5.0 0.01 0.24 0.24 92 998.2
20260903010000 59 142 2.0 5.0 0.01 0.24 0.24 92 998.2
20260903005554 58 142 0.0 1.0 0.01 0.24 0.24 92 998.1
20260903005459 59 142 0.0 1.0 0.01 0.24 0.24 92 998.1
20260903005055 58 142 0.0 6.0 0.01 0.24 0.24 92 998.0
20260903005004 58 142 0.0 6.0 0.01 0.24 0.24 92 998.0
20260903004949 59 142 0.0 6.0 0.01 0.24 0.24 92 998.1
20260903004537 58 142 1.0 7.0 0.01 0.24 0.24 92 998.0
20260903004512 59 141 1.0 7.0 0.01 0.24 0.24 92 998.0
20260903004058 58 142 1.0 7.0 0.01 0.24 0.24 92 998.0
20260903004001 59 142 2.0 7.0 0.01 0.24 0.24 92 998.0
20260903003530 58 157 0.0 6.0 0.01 0.24 0.24 92 998.0
20260903003455 59 158 1.0 6.0 0.01 0.24 0.24 92 998.0
20260903003111 58 158 0.0 7.0 0.01 0.24 0.24 92 997.9
20260903003046 59 158 0.0 7.0 0.01 0.24 0.24 92 997.8
20260903003004 59 158 0.0 7.0 0.01 0.24 0.24 92 997.8
20260903002552 58 158 1.0 7.0 0.01 0.24 0.24 92 997.7
20260903002453 59 157 2.0 7.0 0.01 0.24 0.24 92 997.8
20260903002030 58 175 1.0 6.0 0.00 0.23 0.23 92 997.8
20260903002009 59 174 2.0 6.0 0.00 0.23 0.23 92 997.9
20260903001559 58 166 0.0 5.0 0.00 0.23 0.23 92 997.8
20260903001504 59 167 1.0 5.0 0.00 0.23 0.23 92 997.8
20260903001029 58 167 1.0 8.0 0.00 0.23 0.23 92 997.7
20260903000955 59 167 1.0 8.0 0.00 0.23 0.23 92 997.8
20260903000556 58 140 1.0 8.0 0.00 0.23 0.23 91 997.7
20260903000504 58 140 1.0 8.0 0.00 0.23 0.23 91 997.7
20260903000454 59 140 2.0 8.0 0.00 0.23 0.23 91 997.8
20260903000040 58 140 2.0 7.0 0.00 0.23 0.23 91 997.7
20260902235946 59 148 3.0 7.0 0.00 0.23 0.23 91 997.7
20260902235519 58 142 0.0 7.0 0.00 0.23 0.23 92 997.7
20260902235446 59 142 1.0 7.0 0.00 0.23 0.23 92 997.7
20260902235049 58 138 2.0 7.0 0.00 0.23 0.23 92 997.7
20260902235008 59 138 3.0 7.0 0.00 0.23 0.23 92 997.8
20260902234522 58 153 1.0 7.0 0.00 0.23 0.23 91 997.7
20260902234501 59 252 1.0 7.0 0.00 0.23 0.23 91 997.7
20260902234056 59 255 3.0 7.0 0.00 0.23 0.23 91 997.6
20260902233958 59 186 3.0 7.0 0.00 0.23 0.23 91 997.6
20260902233535 59 183 2.0 8.0 0.00 0.23 0.23 91 997.6
20260902233522 59 160 3.0 8.0 0.00 0.23 0.23 91 997.6
20260902233048 59 150 2.0 11.0 0.00 0.23 0.23 91 997.5
20260902232947 59 150 3.0 11.0 0.00 0.23 0.23 91 997.5
20260902232532 59 142 4.0 11.0 0.00 0.23 0.23 91 997.5
20260902232513 59 137 4.0 11.0 0.00 0.23 0.23 91 997.5
20260902232048 59 154 3.0 11.0 0.00 0.23 0.23 91 997.5
20260902232002 59 231 4.0 11.0 0.00 0.23 0.23 91 997.5
20260902231525 59 163 4.0 11.0 0.00 0.23 0.23 91 997.5
20260902231459 59 154 5.0 11.0 0.00 0.23 0.23 91 997.4
20260902231048 59 209 3.0 10.0 0.00 0.23 0.23 91 997.3
20260902230947 59 140 4.0 10.0 0.00 0.23 0.23 91 997.4
20260902230530 59 171 4.0 10.0 0.00 0.23 0.23 91 997.3
20260902230454 59 161 4.0 10.0 0.00 0.23 0.23 91 997.3
20260902230039 59 140 3.0 10.0 0.00 0.23 0.23 91 997.3
20260902225953 59 169 4.0 10.0 0.00 0.23 0.23 91 997.3
20260902225541 59 198 5.0 15.0 0.00 0.23 0.23 90 997.2
20260902225447 59 153 5.0 15.0 0.00 0.23 0.23 90 997.3
20260902225023 59 177 5.0 15.0 0.00 0.23 0.23 90 997.1
20260902225007 59 161 5.0 15.0 0.00 0.23 0.23 90 997.2
20260902224552 59 202 4.0 9.0 0.00 0.23 0.23 91 997.1
20260902224500 59 164 4.0 9.0 0.00 0.23 0.23 91 997.3
20260902224121 59 165 3.0 9.0 0.00 0.23 0.23 91 997.2
20260902224022 59 166 3.0 9.0 0.00 0.23 0.23 91 997.2
20260902223540 59 142 4.0 9.0 0.00 0.23 0.23 91 997.1
20260902223500 59 141 4.0 9.0 0.00 0.23 0.23 91 997.1
20260902223015 59 167 2.0 10.0 0.00 0.23 0.23 90 997.0
20260902222954 59 166 3.0 10.0 0.00 0.23 0.23 90 997.0
20260902222552 59 166 4.0 21.0 0.00 0.23 0.23 91 997.1
20260902222458 59 169 4.0 21.0 0.00 0.23 0.23 91 997.1
20260902222029 59 134 6.0 21.0 0.00 0.23 0.23 91 997.0
20260902221948 59 194 6.0 21.0 0.00 0.23 0.23 91 997.0
20260902221558 58 148 4.0 21.0 0.00 0.23 0.23 91 996.9
20260902221508 59 142 4.0 20.0 0.00 0.23 0.23 91 997.1
20260902221034 58 150 4.0 12.0 0.00 0.23 0.23 91 997.1
20260902220959 59 149 5.0 12.0 0.00 0.23 0.23 91 997.1
20260902220552 58 155 5.0 13.0 0.00 0.23 0.23 91 997.1
20260902220448 59 174 6.0 13.0 0.00 0.23 0.23 91 997.0
20260902220030 58 143 4.0 13.0 0.00 0.23 0.23 92 997.1
20260902220012 59 129 4.0 13.0 0.00 0.23 0.23 92 997.1
20260902215553 58 194 4.0 13.0 0.00 0.23 0.23 92 997.1
20260902215456 59 142 4.0 12.0 0.00 0.23 0.23 92 997.1
20260902215025 58 142 5.0 13.0 0.00 0.23 0.23 92 997.0
20260902214947 59 155 6.0 13.0 0.00 0.23 0.23 93 997.0
20260902214557 58 131 2.0 13.0 0.00 0.23 0.23 93 997.0
20260902214508 59 132 2.0 13.0 0.00 0.23 0.23 93 997.1
20260902214030 58 129 4.0 13.0 0.00 0.23 0.23 93 997.1
20260902214002 59 144 4.0 13.0 0.00 0.23 0.23 93 997.0
20260902213553 58 143 2.0 7.0 0.00 0.23 0.23 93 997.1
20260902213454 59 143 3.0 7.0 0.00 0.23 0.23 93 997.1
20260902213026 58 146 1.0 5.0 0.00 0.23 0.23 93 997.1
20260902212946 59 146 1.0 5.0 0.00 0.23 0.23 93 997.0
20260902212602 58 146 1.0 7.0 0.01 0.23 0.23 93 997.0
20260902212508 59 146 1.0 7.0 0.01 0.23 0.23 93 997.1
20260902212036 58 146 1.0 7.0 0.01 0.23 0.23 93 997.1
20260902212002 59 146 2.0 7.0 0.01 0.23 0.23 93 997.1
20260902211558 58 150 1.0 6.0 0.01 0.23 0.23 93 997.1
20260902211510 58 165 1.0 6.0 0.01 0.23 0.23 93 997.1
20260902211454 59 170 2.0 6.0 0.01 0.23 0.23 93 997.1
20260902211036 58 134 2.0 6.0 0.02 0.23 0.23 93 997.0
20260902210953 59 132 2.0 6.0 0.02 0.23 0.23 93 997.1
20260902210546 58 133 3.0 7.0 0.02 0.23 0.23 93 997.0
20260902210508 59 132 3.0 7.0 0.03 0.23 0.23 93 997.1
20260902210006 58 132 3.0 7.0 0.03 0.23 0.23 93 997.0
20260902205947 59 132 3.0 7.0 0.03 0.23 0.23 93 997.1
20260902205630 58 133 1.0 8.0 0.03 0.23 0.23 93 997.1
20260902205530 59 132 2.0 8.0 0.03 0.23 0.23 93 997.1
20260902205046 58 131 3.0 8.0 0.05 0.23 0.23 93 997.0
20260902205004 59 132 4.0 8.0 0.05 0.23 0.23 93 997.0
20260902204502 59 131 2.0 7.0 0.06 0.23 0.23 93 997.0
20260902204057 58 130 2.0 7.0 0.07 0.23 0.23 93 996.9
20260902204028 59 130 3.0 8.0 0.07 0.23 0.23 93 996.9
20260902203601 58 130 3.0 8.0 0.07 0.23 0.23 93 996.8
20260902203459 59 130 4.0 8.0 0.08 0.23 0.23 93 996.9
20260902203039 58 109 4.0 8.0 0.09 0.23 0.23 93 996.8
20260902203017 59 109 5.0 8.0 0.09 0.23 0.23 93 996.8
20260902202552 58 97 3.0 8.0 0.11 0.22 0.22 93 996.7
20260902202456 59 132 3.0 8.0 0.11 0.22 0.22 93 996.7
20260902202032 58 98 4.0 8.0 0.12 0.22 0.22 93 996.7
20260902202010 59 98 4.0 8.0 0.12 0.22 0.22 93 996.7
20260902201556 58 106 4.0 11.0 0.13 0.22 0.22 93 996.7
20260902201459 59 90 4.0 11.0 0.13 0.22 0.22 93 996.8
20260902201027 58 96 6.0 11.0 0.13 0.21 0.21 92 996.7
20260902200950 59 96 6.0 11.0 0.13 0.21 0.21 92 996.8
20260902200503 58 127 4.0 9.0 0.12 0.20 0.20 92 996.7
20260902200444 59 88 5.0 9.0 0.12 0.20 0.20 92 996.7
20260902200135 58 92 4.0 9.0 0.13 0.20 0.20 92 996.6
20260902200029 59 104 4.0 9.0 0.13 0.20 0.20 92 996.8
20260902195543 58 90 4.0 8.0 0.14 0.20 0.20 92 996.8
20260902195457 59 119 4.0 7.0 0.14 0.20 0.20 92 996.8
20260902195015 58 115 3.0 7.0 0.13 0.18 0.18 92 996.9
20260902194949 59 115 3.0 7.0 0.13 0.18 0.18 92 997.0
20260902194547 58 123 3.0 7.0 0.12 0.17 0.17 91 997.0
20260902194512 59 123 3.0 7.0 0.12 0.17 0.17 91 997.0
20260902194107 58 123 2.0 7.0 0.11 0.16 0.16 91 997.0
20260902194001 59 122 3.0 6.0 0.11 0.16 0.16 91 997.0
20260902193520 58 125 2.0 6.0 0.11 0.15 0.16 91 997.0
20260902193452 59 125 3.0 6.0 0.11 0.15 0.15 91 997.1
20260902193054 58 125 2.0 3.0 0.09 0.13 0.14 91 997.2
20260902193016 59 125 2.0 3.0 0.09 0.13 0.13 91 997.2
20260902192528 58 126 1.0 6.0 0.07 0.11 0.11 90 997.3
20260902192506 59 125 1.0 6.0 0.07 0.11 0.11 90 997.3
20260902192054 58 125 2.0 6.0 0.06 0.10 0.10 90 997.3
20260902191957 59 125 3.0 6.0 0.06 0.10 0.10 90 997.3
20260902191522 58 125 2.0 8.0 0.05 0.09 0.09 90 997.3
20260902191447 59 123 3.0 8.0 0.05 0.09 0.09 90 997.3
20260902191055 58 124 3.0 8.0 0.05 0.08 0.08 90 997.3
20260902191007 59 124 4.0 8.0 0.05 0.08 0.08 90 997.3
20260902190530 58 95 2.0 7.0 0.05 0.08 0.08 90 997.2
20260902190504 59 94 3.0 7.0 0.05 0.08 0.08 90 997.2
20260902185558 59 136 3.0 7.0 0.04 0.06 0.06 89 997.1
20260902185443 59 136 3.0 7.0 0.04 0.06 0.06 89 997.1
20260902185129 59 136 3.0 7.0 0.03 0.05 0.06 89 997.2
20260902185029 59 136 3.0 7.0 0.03 0.05 0.05 89 997.2
20260902184540 59 136 2.0 6.0 0.03 0.05 0.05 88 997.3
20260902184454 59 136 3.0 6.0 0.03 0.05 0.05 88 997.3
20260902184014 59 137 3.0 6.0 0.04 0.05 0.05 88 997.3
20260902183948 59 136 3.0 6.0 0.04 0.05 0.05 88 997.4
20260902183548 59 138 3.0 6.0 0.03 0.04 0.04 87 997.3
20260902183529 59 138 3.0 6.0 0.03 0.04 0.04 87 997.3
20260902183107 59 123 2.0 7.0 0.03 0.04 0.04 86 997.4
20260902183002 60 123 3.0 7.0 0.03 0.04 0.04 86 997.5
20260902182529 59 98 1.0 6.0 0.04 0.04 0.04 86 997.6
20260902182457 60 147 2.0 6.0 0.04 0.04 0.04 85 997.7
20260902182056 59 148 1.0 7.0 0.04 0.04 0.04 85 997.7
20260902182003 59 167 1.0 7.0 0.04 0.04 0.04 85 997.7
20260902181947 60 172 2.0 7.0 0.04 0.04 0.04 85 997.7
20260902181540 60 174 2.0 7.0 0.04 0.04 0.04 84 997.7
20260902181448 60 174 2.0 7.0 0.04 0.04 0.04 83 997.8
20260902181047 60 159 0.0 5.0 0.03 0.03 0.03 83 997.8
20260902180948 61 159 1.0 8.0 0.03 0.03 0.03 83 997.9
20260902180555 60 157 1.0 8.0 0.03 0.03 0.03 82 997.8
20260902180506 61 157 2.0 8.0 0.03 0.03 0.03 81 997.9
20260902180025 61 277 1.0 7.0 0.02 0.02 0.02 81 997.9
20260902175957 61 277 1.0 7.0 0.02 0.02 0.02 81 997.9
20260902175606 61 279 0.0 7.0 0.02 0.02 0.02 80 997.9
20260902175505 62 265 0.0 4.0 0.02 0.02 0.02 80 998.0
20260902175014 62 265 0.0 7.0 0.02 0.02 0.02 79 997.9
20260902175001 62 265 0.0 7.0 0.02 0.02 0.02 79 997.9
20260902174549 62 265 1.0 7.0 0.02 0.02 0.02 78 997.8
20260902174523 62 265 1.0 7.0 0.02 0.02 0.02 78 997.8
20260902174100 62 267 0.0 5.0 0.01 0.01 0.01 77 997.7
20260902173959 63 267 1.0 5.0 0.01 0.01 0.01 77 997.7